Stations météo

réclame
Mon MeteoGroup
Hohenfels, Allemagne (10775): Température de l'air & dewpoint: 18.05.2019 03:00:00 - 24.05.2019 03:00:00 (CEST)Hohenfels, Allemagne (10775): Vitesse du vent: 18.05.2019 03:00:00 - 24.05.2019 03:00:00 (CEST)Hohenfels, Allemagne (10775): Direction du vent: 18.05.2019 03:00:00 - 24.05.2019 03:00:00 (CEST)Hohenfels, Allemagne (10775): reduced air pressure: 18.05.2019 03:00:00 - 24.05.2019 03:00:00 (CEST)Hohenfels, Allemagne (10775): visibility: 18.05.2019 03:00:00 - 24.05.2019 03:00:00 (CEST)Hohenfels, Allemagne (10775): Quantités de précipitations: 18.05.2019 03:00:00 - 24.05.2019 03:00:00 (CEST)
Date & Time tt [°C] td [°C] ff [km/h] ff [knt] dd ppp [hPa] vv [km] rr [mm]
24.05.2019 03:00:00 6,1 6,1 0 0 N 1017,4 10 -
24.05.2019 02:00:00 6,4 6,4 0 0 N 1017,8 10 -
24.05.2019 01:00:00 7,7 7,7 0 0 N 1017,8 10 -
24.05.2019 00:00:00 8,2 8,2 0 0 N 1018,1 10 -
23.05.2019 23:00:00 9,0 8,8 5 3 W 1018,1 10 -
23.05.2019 22:00:00 10,2 10,0 5 3 W 1018,1 10 -
23.05.2019 21:00:00 12,5 11,6 5 3 WSW 1017,9 10 -
23.05.2019 20:00:00 16,1 11,3 9 5 W 1017,6 10 -
23.05.2019 19:00:00 17,9 9,5 5 3 WSW 1017,8 10 -
23.05.2019 18:00:00 18,6 9,1 9 5 WSW 1018,3 10 -
23.05.2019 17:00:00 18,9 9,4 11 6 W 1018,4 9 -
23.05.2019 16:00:00 18,6 8,3 9 5 W 1018,8 10 -
23.05.2019 15:00:00 18,1 8,9 0 0 N 1019,1 10 -
23.05.2019 14:00:00 17,7 9,3 8 4 NW 1019,5 10 -
23.05.2019 13:00:00 16,5 8,9 11 6 W 1019,8 10 -
23.05.2019 12:00:00 15,4 7,9 8 4 NNE 1020,5 10 -
23.05.2019 11:00:00 14,6 6,9 5 3 NNW 1020,6 10 -
23.05.2019 10:00:00 14,7 9,1 0 0 N 1020,5 10 -
23.05.2019 09:00:00 13,0 8,0 0 0 N 1020,6 5 -
23.05.2019 08:00:00 9,8 9,6 0 0 N 1020,8 10 -
23.05.2019 07:00:00 6,0 6,0 0 0 N 1020,9 10 -
23.05.2019 06:00:00 3,8 3,8 0 0 N 1020,7 10 -
23.05.2019 05:00:00 5,0 5,0 0 0 N 1021,1 10 -
23.05.2019 04:00:00 5,1 5,1 0 0 N 1021,1 10 -
23.05.2019 03:00:00 6,9 6,9 0 0 N 1020,5 10 -
23.05.2019 02:00:00 6,4 6,4 0 0 N 1020,7 10 -
23.05.2019 01:00:00 7,8 7,8 0 0 N 1020,5 10 -
23.05.2019 00:00:00 9,9 9,7 8 4 W 1020,3 10 -
22.05.2019 23:00:00 11,0 10,8 8 4 WNW 1020,0 10 -
22.05.2019 22:00:00 12,1 11,9 9 5 W 1019,5 10 -
22.05.2019 21:00:00 12,5 12,3 9 5 WNW 1019,1 10 -
22.05.2019 20:00:00 13,1 12,3 9 5 WNW 1018,4 10 -
22.05.2019 19:00:00 13,5 12,5 15 8 W 1017,9 10 -
22.05.2019 18:00:00 14,0 13,7 15 8 W 1017,9 10 -
22.05.2019 17:00:00 13,8 13,5 15 8 W 1017,6 10 -
22.05.2019 16:00:00 13,3 13,1 13 7 W 1017,8 10 -
22.05.2019 15:00:00 13,3 13,1 11 6 W 1017,6 10 -
22.05.2019 14:00:00 12,5 12,3 16 9 W 1017,6 10 0,0
22.05.2019 13:00:00 12,6 12,6 13 7 W 1017,2 10 0,0
22.05.2019 12:00:00 11,9 11,9 16 9 W 1016,7 10 0,0
22.05.2019 11:00:00 11,8 11,8 15 8 W 1016,2 10 0,0
22.05.2019 10:00:00 11,9 11,9 13 7 W 1015,9 10 0,0
22.05.2019 09:00:00 11,5 11,5 13 7 W 1015,5 10 -
22.05.2019 08:00:00 11,3 11,3 16 9 W 1015,2 10 -
22.05.2019 07:00:00 11,4 11,4 15 8 WNW 1014,5 10 -
22.05.2019 06:00:00 11,5 11,5 21 11 W 1013,8 10 -
22.05.2019 05:00:00 11,7 11,7 13 7 W 1013,5 10 0,0
22.05.2019 04:00:00 11,9 11,9 9 5 WNW 1013,1 10 0,0
22.05.2019 03:00:00 12,1 12,1 9 5 WNW 1012,8 10 0,0
22.05.2019 02:00:00 12,2 12,2 13 7 WNW 1012,4 10 0,8
22.05.2019 01:00:00 12,7 12,7 13 7 W 1012,4 10 -
22.05.2019 00:00:00 12,8 12,8 13 7 WNW 1012,1 10 -
21.05.2019 23:00:00 13,2 13,2 15 8 W 1011,8 10 -
21.05.2019 22:00:00 13,3 13,3 13 7 WNW 1011,1 10 0,0
21.05.2019 21:00:00 13,6 13,6 13 7 WNW 1010,0 10 0,3
21.05.2019 20:00:00 14,4 14,4 13 7 WNW 1009,4 10 -
21.05.2019 19:00:00 14,7 14,7 11 6 WNW 1008,5 10 0,3
21.05.2019 18:00:00 14,6 14,4 13 7 W 1007,8 10 -
21.05.2019 17:00:00 14,8 14,8 0 0 N 1007,5 10 0,0
21.05.2019 16:00:00 14,4 14,4 11 6 SW 1007,3 10 -
21.05.2019 15:00:00 14,1 14,1 8 4 WSW 1007,0 10 -
21.05.2019 14:00:00 14,2 14,2 8 4 SW 1006,3 10 -
21.05.2019 13:00:00 13,9 13,9 9 5 WSW 1005,9 10 -
21.05.2019 12:00:00 12,5 12,5 13 7 WSW 1005,6 10 -
21.05.2019 11:00:00 12,5 12,5 13 7 WSW 1004,9 10 0,0
21.05.2019 10:00:00 12,1 12,1 9 5 W 1004,8 10 1,3
21.05.2019 09:00:00 12,1 12,1 11 6 W 1004,1 8 0,5
21.05.2019 08:00:00 12,3 12,3 16 9 W 1002,9 10 1,3
21.05.2019 07:00:00 12,3 12,3 8 4 WSW 1002,5 10 0,5
21.05.2019 06:00:00 12,5 12,5 11 6 W 1002,0 10 0,0
21.05.2019 05:00:00 12,5 12,5 5 3 WNW 1002,0 10 0,0
21.05.2019 04:00:00 12,5 12,5 0 0 N 1002,0 10 1,0
21.05.2019 03:00:00 12,5 12,5 5 3 W 1001,6 9 1,3
21.05.2019 02:00:00 12,5 12,5 8 4 WNW 1001,5 10 0,0
21.05.2019 01:00:00 12,2 12,2 8 4 WNW 1001,6 10 0,8
21.05.2019 00:00:00 12,2 12,2 13 7 W 1002,0 10 2,3
20.05.2019 23:00:00 12,4 12,4 13 7 WNW 1001,8 10 0,0
20.05.2019 22:00:00 12,6 12,6 11 6 WNW 1001,5 10 2,3
20.05.2019 21:00:00 12,9 12,9 9 5 WNW 1001,5 9 1,8
20.05.2019 20:00:00 13,5 13,5 11 6 WNW 1001,3 9 0,8
20.05.2019 19:00:00 14,8 14,8 5 3 W 1001,0 10 0,3
20.05.2019 18:00:00 14,7 14,7 8 4 NW 1001,2 10 0,0
20.05.2019 17:00:00 14,8 14,8 8 4 WNW 1001,2 10 3,0
20.05.2019 16:00:00 14,0 14,0 0 0 N 1001,5 2,6 2,8
20.05.2019 15:00:00 15,3 15,1 9 5 WNW 1001,6 8 0,8
20.05.2019 14:00:00 15,0 15,0 0 0 N 1001,8 10 0,0
20.05.2019 13:00:00 16,8 13,7 8 4 NNE 1001,6 10 -
20.05.2019 12:00:00 16,4 13,5 0 0 N 1001,6 10 -
20.05.2019 11:00:00 17,1 13,8 9 5 NNE 1001,5 10 -
20.05.2019 10:00:00 17,9 14,4 13 7 ENE 1000,9 10 -
20.05.2019 09:00:00 16,0 14,5 5 3 NNE 1000,8 10 -
20.05.2019 08:00:00 14,4 14,2 5 3 NW 1000,8 9 -
20.05.2019 07:00:00 12,1 11,9 0 0 N 1000,4 8 -
20.05.2019 06:00:00 10,4 10,2 0 0 N 1000,8 6 -
20.05.2019 05:00:00 10,1 9,9 0 0 N 1000,9 10 -
20.05.2019 04:00:00 11,3 11,1 0 0 N 1000,8 10 -
20.05.2019 03:00:00 12,0 11,5 0 0 N 1001,4 10 -
20.05.2019 02:00:00 11,1 10,9 0 0 N 1001,8 10 -
20.05.2019 01:00:00 11,4 11,1 0 0 N 1002,1 10 -
20.05.2019 00:00:00 11,9 10,6 0 0 N 1002,3 10 -
19.05.2019 23:00:00 13,2 9,8 5 3 WNW 1002,3 10 -
19.05.2019 22:00:00 14,3 9,7 0 0 N 1002,0 10 -
19.05.2019 21:00:00 17,2 9,6 0 0 N 1001,6 10 -
19.05.2019 20:00:00 19,4 9,6 11 6 ESE 1002,3 10 -
19.05.2019 19:00:00 21,2 10,9 15 8 E 1001,6 10 -
19.05.2019 18:00:00 23,2 10,6 8 4 E 1001,3 10 -
19.05.2019 17:00:00 22,7 9,5 0 0 N 1001,5 10 -
19.05.2019 16:00:00 22,9 9,3 0 0 N 1001,8 10 -
19.05.2019 15:00:00 22,3 10,1 5 3 WNW 1002,2 10 -
19.05.2019 14:00:00 22,0 10,8 13 7 ENE 1002,5 10 -
19.05.2019 13:00:00 21,9 11,3 5 3 S 1002,6 10 -
19.05.2019 12:00:00 20,3 11,0 11 6 ESE 1003,2 10 -
19.05.2019 11:00:00 19,3 11,1 8 4 E 1003,5 10 -
19.05.2019 10:00:00 17,4 11,9 9 5 SE 1003,9 10 -
19.05.2019 09:00:00 14,4 14,1 0 0 N 1004,4 10 -
19.05.2019 08:00:00 9,4 9,2 0 0 N 1004,4 10 -
19.05.2019 07:00:00 7,6 7,6 0 0 N 1004,4 10 -
19.05.2019 06:00:00 5,7 5,7 0 0 N 1004,2 10 -
19.05.2019 05:00:00 6,2 6,2 0 0 N 1004,2 10 -
19.05.2019 04:00:00 6,8 6,8 0 0 N 1004,0 10 -
19.05.2019 03:00:00 7,5 7,5 0 0 N 1004,0 10 -
19.05.2019 02:00:00 8,7 8,7 0 0 N 1004,0 10 -
19.05.2019 01:00:00 9,8 9,6 0 0 N 1004,4 10 -
19.05.2019 00:00:00 11,0 10,8 0 0 N 1005,1 10 -
18.05.2019 23:00:00 11,6 11,4 0 0 N 1005,1 10 -
18.05.2019 22:00:00 13,4 11,6 5 3 W 1005,1 10 -
18.05.2019 21:00:00 15,0 11,9 5 3 W 1004,7 10 -
18.05.2019 20:00:00 18,4 10,5 0 0 N 1004,4 10 -
18.05.2019 19:00:00 19,0 10,8 9 5 E 1004,8 10 -
18.05.2019 18:00:00 19,6 10,3 11 6 E 1005,1 10 -
18.05.2019 17:00:00 20,9 9,8 13 7 E 1004,8 10 -
18.05.2019 16:00:00 20,6 10,4 9 5 ENE 1004,9 10 -
18.05.2019 15:00:00 19,9 10,6 9 5 ENE 1005,3 10 -
18.05.2019 14:00:00 19,7 10,7 9 5 E 1005,6 10 -
18.05.2019 13:00:00 18,7 10,3 13 7 E 1005,9 10 -
18.05.2019 12:00:00 17,8 10,2 15 8 ENE 1005,9 10 -
18.05.2019 11:00:00 15,9 10,9 5 3 ENE 1006,3 10 -
18.05.2019 10:00:00 14,4 11,0 13 7 NE 1006,6 10 -
18.05.2019 09:00:00 12,7 11,9 0 0 N 1006,4 10 -
18.05.2019 08:00:00 10,2 10,2 5 3 ENE 1006,6 10 -
18.05.2019 07:00:00 5,6 5,6 0 0 N 1006,5 10 -
18.05.2019 06:00:00 3,6 3,6 0 0 N 1006,3 10 -
18.05.2019 05:00:00 3,8 3,8 0 0 N 1006,3 10 -
18.05.2019 04:00:00 4,2 4,2 0 0 N 1006,7 10 -
18.05.2019 03:00:00 5,3 5,3 8 4 NNW 1007,0 10 -

tt = Température de l'air
td = dewpoint
ff = Vitesse du vent
dd = Direction du vent
ppp = reduced air pressure
vv = visibility
rr = Quantités de précipitations

stations d'obs. à proximité